Location: Praha
(50.0830°N, 14.4670°E)
Time: 01:00:11
(UTC+01:00)

ISS - Pass Details

Date: 23 May 2018
Orbit: 402 x 408 km, 51.6° (Epoch: 15 November)

Event Time Altitude Azimuth Distance (km) Brightness Sun altitude
Rises 03:48:58 0° 283° (WNW) 2,319 -0.3 -10.0°
Reaches altitude 10° 03:51:31 10° 262° (W) 1,455 -1.5 -9.7°
Maximum altitude 03:53:43 17° 220° (SW) 1,104 -2.3 -9.5°
Drops below altitude 10° 03:55:55 10° 177° (S) 1,449 -1.4 -9.3°
Sets 03:58:27 0° 156° (SSE) 2,305 -0.2 -9.0°
